This is the latest recevied weather packets stored in our database for station/object WS4FSC-7. If no packets are shown the sender has not sent any weather packets the latest 10 day(s).
| Time | Temp. | Humidity | Pressure | Rain* | Wind** | Luminosity | Snow |
|---|---|---|---|---|---|---|---|
| 1788370011 | 30.56° C | 77% | 1014 hPa | - | - | 635 W/m² | - |
| 1788369471 | 31.11° C | 77% | 1014 hPa | - | - | 633 W/m² | - |
| 1788368930 | 31.11° C | - | - | - | - | - | - |
| 1788368751 | 31.11° C | 78% | 1014 hPa | - | - | 1133 W/m² | - |
| 1788368571 | 31.11° C | 78% | 1014 hPa | - | - | 700 W/m² | - |
| 1788368283 | 31.11° C | 77% | 1014 hPa | - | - | 696 W/m² | - |
| 1788368211 | 31.11° C | 77% | 1014 hPa | - | - | 696 W/m² | - |
| 1788368030 | 31.11° C | 76% | 1014 hPa | - | - | 369 W/m² | - |
| 1788367670 | 31.67° C | 75% | 1015 hPa | - | - | 393 W/m² | - |
| 1788367491 | 31.67° C | 72% | 1014 hPa | - | - | 387 W/m² | - |
| 1788367311 | 31.67° C | 70% | 1015 hPa | - | - | 368 W/m² | - |
| 1788366951 | 31.67° C | 70% | 1015 hPa | - | - | 356 W/m² | - |
| 1788366771 | 31.67° C | 73% | 1015 hPa | - | - | 429 W/m² | - |
| 1788366591 | 31.11° C | 72% | 1015 hPa | - | - | 512 W/m² | - |
| 1788366411 | 31.11° C | 73% | 1015 hPa | - | - | 562 W/m² | - |
| 1788366231 | 31.11° C | 75% | 1015 hPa | - | - | 554 W/m² | - |
| 1788366051 | 31.11° C | 74% | 1015 hPa | - | - | 439 W/m² | - |
| 1788365873 | 30.56° C | 74% | 1015 hPa | - | - | 346 W/m² | - |
| 1788365150 | 30.56° C | 74% | 1015 hPa | - | - | 278 W/m² | - |
| 1788364610 | 30.56° C | 75% | 1015 hPa | - | - | 414 W/m² | - |
| 1788364430 | 30.56° C | 75% | 1015 hPa | - | - | 444 W/m² | - |
| 1788364251 | 30.56° C | 76% | 1015 hPa | - | - | 401 W/m² | - |
| 1788363890 | 30.56° C | 76% | 1015 hPa | - | - | 405 W/m² | - |
| 1788363351 | 30.56° C | 78% | 1015 hPa | - | - | 500 W/m² | - |
| 1788362811 | 30° C | 78% | 1015 hPa | - | - | 450 W/m² | - |
* Rain since midnight (hover to see other rain measurements)
** Current wind speed in m/s (hover to see current wind gust speed)